Solander Island, British Columbia

2:12 AM PDT on July 21, 2017 (GMT -0700)
Solander Island

Weather History for CWRU - November, 2012

Change the Weather History Date:

Thursday, November 15, 2012

  Actual Average Record
Temperature  
Mean Temperature 46 °F -  
Max Temperature 47 °F - - ()
Min Temperature 44 °F - - ()
Degree Days  
Heating Degree Days 20    
Moisture  
Dew Point 44 °F    
Average Humidity 92    
Maximum Humidity 97    
Minimum Humidity 78    
Precipitation  
Precipitation 0.12 in - - ()
Sea Level Pressure  
Sea Level Pressure 30.05 in    
Wind  
Wind Speed 16 mph ()    
Max Wind Speed 32 mph    
Max Gust Speed 40 mph    
T = Trace of Precipitation, MM = Missing Value Source: Averaged Metar Reports

Daily Weather History Graph

Daily Weather History Graph

Search for Another Location

Airport or City:

Trip Planner

Search our weather history database for the weather conditions in past years. The results will help you decide how hot, cold, wet, or windy it might be!

Date:

Astronomy

Nov. 15, 2012 Rise Set
Actual Time 7:45 AM PST 4:46 PM PST
Civil Twilight 7:10 AM PST 5:22 PM PST
Nautical Twilight 6:30 AM PST 6:01 PM PST
Astronomical Twilight 5:52 AM PST 6:39 PM PST
Moon 9:55 AM PST (11/15) 6:37 PM PST (11/15)
Length of Visible Light 10h 11m
Length of Day
9h 00m
Waxing Crescent, 5% of the Moon is Illuminated
Nov 15
Waxing Crescent
Nov 20
First Quarter
Nov 28
Full
Dec 6
Last Quarter
Dec 13
New

Hourly Weather History & Observations

Time (PST) Temp. Windchill Dew Point Humidity Pressure Visibility Wind Dir Wind Speed Gust Speed Precip Events Conditions
12:00 AM 45.7 °F 41.0 °F 43.9 °F 93% 30.28 in - South 9.2 mph - N/A   Unknown
1:00 AM 45.5 °F 38.3 °F 43.2 °F 92% 30.25 in - SE 17.3 mph 25.3 mph N/A   Unknown
2:00 AM 45.7 °F 38.6 °F 43.9 °F 93% 30.24 in - ESE 17.3 mph - N/A   Unknown
3:00 AM 45.7 °F 39.8 °F 44.2 °F 95% 30.23 in - ESE 12.7 mph 20.7 mph N/A   Unknown
4:00 AM 45 °F - 44 °F 94% 30.20 in - ESE 12.7 mph - -  
4:00 AM 45.1 °F 39.1 °F 43.9 °F 95% 30.20 in - ESE 12.7 mph 19.6 mph N/A   Unknown
5:00 AM 45.7 °F 37.8 °F 43.2 °F 91% 30.18 in - SSE 20.7 mph - 0.02 in   Unknown
6:00 AM 45.1 °F 37.6 °F 43.9 °F 95% 30.17 in - SSE 18.4 mph - N/A   Unknown
7:00 AM 45.7 °F 40.6 °F 44.2 °F 95% 30.15 in - SE 10.4 mph - N/A   Unknown
8:00 AM 45.1 °F 37.9 °F 43.9 °F 95% 30.14 in - SE 17.3 mph - N/A   Unknown
9:00 AM 45.3 °F 37.6 °F 44.4 °F 97% 30.11 in - SSE 19.6 mph - 0.03 in   Unknown
10:00 AM 45 °F - 44 °F 95% 30.09 in - ESE 20.7 mph - -  
10:00 AM 45.0 °F 36.9 °F 44.1 °F 97% 30.09 in - ESE 20.7 mph - N/A   Unknown
11:00 AM 45.7 °F 38.3 °F 44.8 °F 97% 30.08 in - SE 18.4 mph 25.3 mph 0.02 in   Unknown
12:00 PM 45.5 °F 37.6 °F 44.2 °F 95% 30.05 in - SSE 20.7 mph - 0.09 in   Unknown
1:00 PM 45.7 °F 37.8 °F 44.1 °F 94% 30.04 in - SSE 20.7 mph - 0.02 in   Unknown
2:00 PM 45.1 °F 37.1 °F 43.9 °F 95% 30.02 in - South 20.7 mph - N/A   Unknown
3:00 PM 45.5 °F 37.3 °F 44.1 °F 95% 29.99 in - SSE 21.9 mph - N/A   Unknown
4:00 PM 46 °F - 43 °F 84% 29.96 in - SSE 24.2 mph - -  
4:00 PM 46.4 °F 38.1 °F 42.6 °F 87% 29.96 in - SSE 24.2 mph - N/A   Unknown
5:00 PM 46.4 °F 38.5 °F 43.7 °F 90% 29.94 in - SSE 21.9 mph - N/A   Unknown
6:00 PM 45.9 °F 37.0 °F 43.2 °F 90% 29.91 in - SSE 26.5 mph - N/A   Unknown
7:00 PM 45.9 °F 36.8 °F 43.3 °F 91% 29.90 in - SSE 27.6 mph - N/A   Unknown
8:00 PM 46.6 °F - 42.4 °F 85% 29.87 in - SSE 27.6 mph - N/A   Unknown
9:00 PM 46.9 °F - 41.9 °F 83% 29.85 in - SSE 29.9 mph - N/A   Unknown
10:00 PM 46 °F - 43 °F 87% 29.82 in - ESE 23.0 mph - -  
10:00 PM 46.4 °F 38.3 °F 43.3 °F 89% 29.82 in - ESE 23.0 mph 33.4 mph N/A   Unknown
11:00 PM 47.5 °F - 40.8 °F 78% 29.79 in - SSE 32.2 mph 40.3 mph N/A   Unknown